Jendouba, Tunisia

12:39 AM CET on October 15, 2019 (GMT +0100)
Jendouba

Weather History for DTTN - August, 2019

Change the Weather History Date:

Tuesday, August 27, 2019

  Actual Average Record
Temperature  
Mean Temperature 86 °F -  
Max Temperature 100 °F 90 °F - ()
Min Temperature 72 °F 62 °F - ()
Cooling Degree Days 21    
Growing Degree Days 36 (Base 50)    
Moisture  
Dew Point 67 °F    
Average Humidity 55    
Maximum Humidity 83    
Minimum Humidity 22    
Precipitation  
Precipitation 0.00 in 0.04 in - ()
Sea Level Pressure  
Sea Level Pressure 29.95 in    
Wind  
Wind Speed 4 mph ()    
Max Wind Speed 13 mph    
Max Gust Speed -    
Visibility 6.2 miles    
Events Thunderstorm    
T = Trace of Precipitation, MM = Missing Value Source: Averaged Metar Reports

Daily Weather History Graph

Daily Weather History Graph

Search for Another Location

Airport or City:

Astronomy

Aug. 27, 2019 Rise Set
Actual Time 5:51 AM CET 7:00 PM CET
Civil Twilight 5:25 AM CET 7:27 PM CET
Nautical Twilight 4:53 AM CET 7:58 PM CET
Astronomical Twilight 4:20 AM CET 8:31 PM CET
Moon 2:05 AM CET (8/27) 5:00 PM CET (8/27)
Length of Visible Light 14h 01m
Length of Day
13h 08m
Waning Crescent, 13% of the Moon is Illuminated
Aug 27
Waning Crescent
Aug 30
New
Sep 6
First Quarter
Sep 14
Full
Sep 22
Last Quarter

Hourly Weather History & Observations

Time (CET) Temp. Heat Index Dew Point Humidity Pressure Visibility Wind Dir Wind Speed Gust Speed Precip Events Conditions
1:00 AM 79 °F - 69 °F 65% 29.94 in 5 mi NE 2.3 mph - -  
1:00 AM 78.8 °F - 69.8 °F 74% 29.95 in 5.0 mi NE 2.3 mph - N/A   Unknown
2:00 AM 77.0 °F - 69.8 °F 78% 29.95 in 5.0 mi Variable 2.3 mph - N/A   Unknown
4:00 AM 74 °F - 68 °F 78% 29.94 in 5 mi Calm Calm - -  
4:00 AM 73.4 °F - 68.0 °F 83% 29.95 in 5.0 mi Calm Calm - N/A   Unknown
5:00 AM 73.4 °F - 66.2 °F 78% 29.95 in 5.0 mi SW 2.3 mph - N/A   Unknown
6:00 AM 73.4 °F - 68.0 °F 83% 29.98 in 6.2 mi Calm Calm - N/A   Partly Cloudy
7:00 AM 75 °F - 69 °F 75% 29.96 in 6 mi SW 3.5 mph - -   Scattered Clouds
8:00 AM 82.4 °F 84.6 °F 66.2 °F 58% 29.98 in 6.2 mi Variable 1.2 mph - N/A   Partly Cloudy
10:00 AM 90 °F - 64 °F 32% 29.96 in 9 mi West 3.5 mph - -   Scattered Clouds
10:00 AM 89.6 °F 91.1 °F 64.4 °F 43% 29.98 in 6.2 mi West 3.5 mph - N/A   Partly Cloudy
11:00 AM 93.2 °F 94.9 °F 64.4 °F 38% 29.98 in 6.2 mi North 3.5 mph - N/A   Partly Cloudy
1:00 PM 99 °F - 64 °F 22% 29.92 in 9 mi NNW 10.4 mph - -   Scattered Clouds
1:00 PM 98.6 °F 101.0 °F 64.4 °F 32% 29.95 in 6.2 mi NNW 10.4 mph - N/A   Partly Cloudy
3:00 PM 96.8 °F 101.8 °F 68.0 °F 39% 29.92 in 6.2 mi North 12.7 mph - N/A   Partly Cloudy
4:00 PM 95 °F - 66 °F 29% 29.90 in 9 mi NNW 12.7 mph - -   Partly Cloudy
4:00 PM 95.0 °F 98.5 °F 66.2 °F 39% 29.92 in 6.2 mi NNW 12.7 mph - N/A   Scattered Clouds
5:00 PM 93.2 °F 97.7 °F 68.0 °F 44% 29.92 in 6.2 mi NNW 9.2 mph - N/A   Scattered Clouds
6:00 PM 91.4 °F 93.2 °F 64.4 °F 41% 29.92 in 6.2 mi NNW 10.4 mph - N/A   Scattered Clouds
7:00 PM 89 °F - 67 °F 39% 29.91 in 9 mi North 4.6 mph - -   Mostly Cloudy
7:00 PM 89.6 °F 93.4 °F 68.0 °F 49% 29.92 in 6.2 mi North 5.8 mph - N/A   Scattered Clouds
8:00 PM 80.6 °F 83.2 °F 68.0 °F 65% 29.95 in 6.2 mi South 6.9 mph - N/A Thunderstorm Thunderstorm
9:00 PM 80.6 °F 83.2 °F 68.0 °F 65% 29.98 in 6.2 mi NNE 2.3 mph - N/A Thunderstorm Thunderstorm
10:00 PM 80 °F - 64 °F 50% 29.99 in 5 mi SSW 3.5 mph - - Thunderstorm Light Thunderstorm
10:00 PM 80.6 °F 82.3 °F 64.4 °F 58% 30.01 in 5.0 mi SSW 3.5 mph - N/A   Scattered Clouds
11:00 PM 77.0 °F - 66.2 °F 69% 30.01 in 5.0 mi SW 3.5 mph - N/A   Scattered Clouds